OneWeb SL0024

operational
NORAD ID: 45137 Int'l Des: 2020-008 Owner: ONEWEB Country: UK Constellation: oneweb
LEOCIRCULARPOLARONEWEB_TYPE

Über OneWeb SL0024

Beschreibung wird geladen...

Live-Position

3D-Globus wird geladen...

Nächste Überflüge

Höhenverlauf

Altitude vs Time

uPlot chart will show altitude changes over time

Zweizeiliger Elementsatz

1 45137U 20008G 25257.54669655 .00000171 00000-0 45333-3 0 9997
2 45137 87.8752 91.1956 0001598 87.1056 273.0254 13.10369252272141
Epoch: 14. Sept. 2025 • Age: 20 hours

Aktueller Status

Höhe 1243.8 km
Geschwindigkeit 7.23 km/s
Subsatellitenpunkt -54.51°S, 41.55°W
Startdatum 6. Feb. 2020
Alter 5.6 years
Typ internet

Technische Details

Klassifizierung Payload
Masse 148.00 kg
Trockenmasse 140.00 kg
Gesamtmasse 148.00 kg
Länge 1.30 m
Durchmesser 1.00 m
Spannweite 5.00 m
Form Trapezoid+2 pan
Hersteller ONEWUS
Bus-Typ ARROW
Phasenstatus In Orbit
Besitzer/Staat ONEWEB/UK

Große Konstellationen

Loading constellations...